Miscellaneous Local Product
Issued by NWS North Platte, NE

Home | Current Version | Previous Version | Text Only | Print | Product List | Glossary On
Versions: 1 2 3 4 5 6 7 8 9 10 11 12 13 14 15 16 17 18 19 20 21 22 23 24 25 26 27 28 29 30 31 32 33 34 35 36 37 38 39 40 41 42 43 44 45 46 47 48 49 50
000
AXUS43 KLBF 282010
MISLBF


WESTERN AND NORTH CENTRAL NEBRASKA HOURLY WEATHER ROUNDUP
NATIONAL WEATHER SERVICE NORTH PLATTE NE
300 PM CDT SAT MAR 28 2015

***STATIONS NOT REPORTING VARIABLES SUCH AS SKY/WEATHER OR
PRESSURE ARE PROVIDED BY THE NEBRASKA DEPARTMENT OF
ROADS...RAWS...AND APRS NETWORKS...AND ARE NOT UNDER
NATIONAL WEATHER SERVICE QUALITY CONTROL***

...OBSERVATIONS IN AND NEAR THE EASTERN PANHANDLE OF NEBRASKA...

CITY           SKY/WX    TMP DP  RH WIND       PRES   REMARKS
PINE RIDGE     SUNNY     78  31  17 SW15      29.78F
CHADRON        SUNNY     80  33  18 SW10      29.77F
ALLIANCE       SUNNY     78  30  17 W21G26    29.84F
SIDNEY         SUNNY     80  27  14 W20G26    29.90F
CRESCENT LAKE    N/A     76  25  15 SW13G21     N/A
BIG SPRINGS      N/A     76  32  20 SW6         N/A
$$

...OBSERVATIONS IN NORTH CENTRAL NEBRASKA...

CITY           SKY/WX    TMP DP  RH WIND       PRES   REMARKS
VALENTINE      SUNNY     74  33  22 S17G25    29.84F
THEDFORD       SUNNY     75  35  23 S14G25    29.89F
AINSWORTH      SUNNY     68  34  28 S14G23    29.89F
O`NEILL        SUNNY     58  32  37 S17G24    29.96F
ORD            SUNNY     60  30  32 SE15G23   29.96F
BROKEN BOW     SUNNY     65  35  33 S17G25    29.95F
SPRINGVIEW       N/A     68  38  33 S10G18      N/A
SARGENT          N/A     62  35  36 S6G13       N/A
COMSTOCK         N/A     66  33  29 S16         N/A
EWING            N/A     56  38  51 SE10G17     N/A
$$

...OBSERVATIONS IN SOUTHWEST NEBRASKA AND FAR NORTHEAST COLORADO...

CITY           SKY/WX    TMP DP  RH WIND       PRES   REMARKS
WRAY           FAIR      82  24  12 SW9       29.93F
IMPERIAL         N/A     76  32  20 S13G22    29.92F
OGALLALA       SUNNY     78  32  18 SW12G17   29.89F
NORTH PLATTE   SUNNY     74  35  24 S13G20    29.91F
MCCOOK         SUNNY     76  35  22 VRB6      29.93F
LEXINGTON      SUNNY     69  35  29 S10G20    29.96F
PAXTON           N/A     72  39  30 SE9         N/A
BRADY            N/A     72  38  29 CALM        N/A
GOTHENBURG       N/A     67  35  30 S9          N/A
CALLAWAY         N/A     66  40  38 S16         N/A
$$

...NORTH PLATTE AREA...

CITY           SKY/WX    TMP DP  RH WIND       PRES   REMARKS
AIRPORT        SUNNY     74  35  24 S13G20    29.91F
DOWNTOWN         N/A     72  38  29 S10         N/A
$$

...SOME WEATHER OBSERVATIONS FROM AROUND THE REGION...

CITY           SKY/WX    TMP DP  RH WIND       PRES   REMARKS
DENVER         MOSUNNY   77  20  12 W12G21    29.99F
LARAMIE        SUNNY     66  19  16 W25G36    30.07F
CHEYENNE       SUNNY     72  20  14 W15G22    29.99F
SCOTTSBLUFF    SUNNY     80  26  13 NW17G26   29.85F
RAPID CITY     SUNNY     80  33  18 SE18G29   29.68F
PIERRE         SUNNY     68  36  30 S23G29    29.79F
WINNER         FAIR      70  34  26 S20G25    29.85F
SIOUX FALLS    SUNNY     50  26  39 S20G28    30.02F
OMAHA          MOSUNNY   51  28  41 SE15      30.10F
GRAND ISLAND   SUNNY     58  33  39 SE14      30.01F
KANSAS CITY    MOSUNNY   51  31  46 E16G29    30.14F
WICHITA        SUNNY     69  40  34 E12       30.00F
HAYS           SUNNY     70  39  32 SE9       29.99F
LIBERAL        SUNNY     81  36  19 CALM      29.99F
GOODLAND       SUNNY     79  26  14 NW8       29.95F
$$



USA.gov is the U.S. government's official web portal to all federal, state and local government web resources and services.